Regional Weather Roundup
Issued by NWS

Home | Current Version | Previous Version | Graphics & Text | Print | Product List | Glossary On
Versions: 1 2 3 4 5 6 7 8 9 10 11 12 13 14 15 16 17 18 19 20 21 22 23 24 25 26 27 28 29 30 31 32 33 34 35 36 37 38 39 40 41 42 43 44 45 46 47 48 49 50
000
ASUS43 KLMK 302310
RWRKY
KENTUCKY REGIONAL WEATHER ROUNDUP
NATIONAL WEATHER SERVICE LOUISVILLE KY
700 PM EDT TUE SEP 30 2014

NOTE "FAIR" INDICATES FEW OR NO CLOUDS BELOW 12,000 FEET
WITH NO SIGNIFICANT WEATHER AND/OR OBSTRUCTIONS TO VISIBILITY.

KYZ001>023-026-027-061>063-070>075-010000-
WESTERN AND SOUTH CENTRAL KENTUCKY

CITY           SKY/WX    TMP DP  RH WIND       PRES   REMARKS
PADUCAH        CLEAR     82  55  39 NE5       29.87S
HENDERSON      NOT AVBL
OWENSBORO      PTCLDY    82  57  42 N7        29.88S
HOPKINSVILLE   CLEAR     81  52  36 NE6       29.89R
BOWLING GREEN  CLEAR     84  52  33 CALM      29.89R
GLASGOW        CLEAR     80  51  35 CALM      29.90R
$$

KYZ024-025-028>034-038-045-046-053-010000-
NORTH CENTRAL KENTUCKY

CITY           SKY/WX    TMP DP  RH WIND       PRES   REMARKS
LOUISVILLE/SDF PTCLDY    80  57  45 NW9       29.89R
LOUISVILLE/LOU PTCLDY    80  59  48 NW5       29.89R
FORT KNOX      PTCLDY    77  60  57 NW3       29.89R
$$

KYZ035>037-039>044-047>052-055>060-089>105-010000-
NORTHEAST KENTUCKY

CITY           SKY/WX    TMP DP  RH WIND       PRES   REMARKS
LEXINGTON      PTCLDY    78  57  48 NW3       29.91R
COVINGTON      MOCLDY    69  57  65 N13       29.92R
FRANKFORT      MOCLDY    77  58  51 N5        29.89R
$$

KYZ054-064>069-076>088-106>120-010000-
SOUTHEAST KENTUCKY

CITY           SKY/WX    TMP DP  RH WIND       PRES   REMARKS
JACKSON        CLEAR     72  55  55 CALM      29.92R
LONDON         PTCLDY    77  56  48 SW3       29.93R
SOMERSET       CLEAR     77  52  41 SW3       29.92S
MIDDLESBORO    CLEAR     72  58  62 CALM      29.93R
MONTICELLO     CLEAR     78  58  50 CALM      29.93R
$$




USA.gov is the U.S. government's official web portal to all federal, state and local government web resources and services.